EAG5511 SBSP-SBBR

Flight info

Callsign EAG5511
Flight time 1h 11m
Altitude 40000
Route GERTU UZ25 PUGOR/N0476F430 UZ25 PABIN
Aircraft C700/M-SBDGHM1RWXY/LB2

Departure

Time 2026-05-04 19:29
Airport Congonhas–Deputado Freitas Nobre Airport (SBSP)

Arrival

Time 2026-05-04 20:40
Airport Presidente Juscelino Kubitschek International Airport (SBBR)
Time Latitude Longitude Altitude Speed Heading
2026-05-04 19:28 -23.54785 -46.71518 10085 ft 272 kts 322°
2026-05-04 19:29 -23.53201 -46.72782 11145 ft 295 kts 322°
2026-05-04 19:29 -23.51463 -46.74126 12275 ft 313 kts 323°
2026-05-04 19:29 -23.49654 -46.75491 13727 ft 321 kts 322°
2026-05-04 19:29 -23.47793 -46.76912 14965 ft 329 kts 322°
2026-05-04 19:30 -23.45910 -46.78359 16292 ft 334 kts 322°
2026-05-04 19:30 -23.43988 -46.79823 17561 ft 340 kts 321°
2026-05-04 19:30 -23.42065 -46.81295 18760 ft 345 kts 321°
2026-05-04 19:30 -23.40486 -46.82500 19587 ft 351 kts 321°
2026-05-04 19:31 -23.38474 -46.84037 20615 ft 357 kts 321°
2026-05-04 19:31 -23.36424 -46.85600 21632 ft 363 kts 320°
2026-05-04 19:31 -23.34335 -46.87192 22631 ft 370 kts 320°
2026-05-04 19:31 -23.32209 -46.88816 23563 ft 377 kts 320°
2026-05-04 19:32 -23.30044 -46.90465 24400 ft 382 kts 320°
2026-05-04 19:32 -23.27851 -46.92134 25285 ft 387 kts 320°
2026-05-04 19:32 -23.25667 -46.93795 26167 ft 390 kts 319°
2026-05-04 19:32 -23.23427 -46.95503 26979 ft 396 kts 319°
2026-05-04 19:33 -23.21161 -46.97230 27769 ft 401 kts 319°
2026-05-04 19:33 -23.18853 -46.98983 28599 ft 406 kts 319°
2026-05-04 19:33 -23.16523 -47.00753 29413 ft 411 kts 318°
2026-05-04 19:33 -23.14166 -47.02545 30223 ft 416 kts 318°
2026-05-04 19:34 -23.11782 -47.04357 30921 ft 420 kts 318°
2026-05-04 19:34 -23.09373 -47.06184 31613 ft 424 kts 318°
2026-05-04 19:34 -23.06943 -47.08028 32267 ft 428 kts 318°
2026-05-04 19:34 -23.04527 -47.09861 32881 ft 431 kts 318°
2026-05-04 19:35 -23.02061 -47.11731 33529 ft 433 kts 318°
2026-05-04 19:35 -22.99595 -47.13595 34401 ft 430 kts 317°
2026-05-04 19:35 -22.97153 -47.15444 35149 ft 427 kts 317°
2026-05-04 19:35 -22.94723 -47.17286 35853 ft 425 kts 317°
2026-05-04 19:36 -22.92303 -47.19119 36499 ft 424 kts 317°
2026-05-04 19:36 -22.89888 -47.20946 37091 ft 422 kts 317°
2026-05-04 19:36 -22.87482 -47.22764 37682 ft 421 kts 316°
2026-05-04 19:36 -22.85087 -47.24574 38240 ft 419 kts 316°
2026-05-04 19:37 -22.82735 -47.26352 38710 ft 417 kts 316°
2026-05-04 19:37 -22.80358 -47.28146 39134 ft 416 kts 316°
2026-05-04 19:37 -22.77989 -47.29935 39490 ft 415 kts 316°
2026-05-04 19:37 -22.75627 -47.31717 39836 ft 414 kts 316°
2026-05-04 19:38 -22.73263 -47.33502 40067 ft 416 kts 316°
2026-05-04 19:38 -22.68430 -47.37151 40062 ft 431 kts 316°
2026-05-04 19:39 -22.63423 -47.40919 40057 ft 446 kts 316°
2026-05-04 19:39 -22.58295 -47.44774 40071 ft 457 kts 317°
2026-05-04 19:40 -22.53056 -47.48709 40074 ft 459 kts 317°
2026-05-04 19:40 -22.47804 -47.52651 40071 ft 460 kts 317°
2026-05-04 19:41 -22.42002 -47.55837 40057 ft 477 kts 331°
2026-05-04 19:41 -22.35495 -47.57513 40058 ft 491 kts 343°
2026-05-04 19:42 -22.28749 -47.58641 40057 ft 490 kts 342°
2026-05-04 19:42 -22.22016 -47.59773 40052 ft 490 kts 343°
2026-05-04 19:43 -22.15255 -47.60906 40071 ft 492 kts 342°
2026-05-04 19:43 -22.08490 -47.62038 40075 ft 492 kts 343°
2026-05-04 19:44 -22.01763 -47.63163 40079 ft 493 kts 342°
2026-05-04 19:44 -21.94987 -47.64294 40065 ft 493 kts 343°
2026-05-04 19:45 -21.88223 -47.65423 40057 ft 487 kts 343°
2026-05-04 19:45 -21.81580 -47.66531 40048 ft 481 kts 342°
2026-05-04 19:46 -21.74973 -47.67634 40041 ft 480 kts 342°
2026-05-04 19:46 -21.68415 -47.68725 40035 ft 481 kts 342°
2026-05-04 19:47 -21.61799 -47.69826 40045 ft 481 kts 342°
2026-05-04 19:47 -21.55175 -47.70917 40048 ft 482 kts 343°
2026-05-04 19:48 -21.48545 -47.71999 40042 ft 483 kts 343°
2026-05-04 19:48 -21.41947 -47.73082 40049 ft 483 kts 343°
2026-05-04 19:49 -21.35304 -47.74166 40059 ft 483 kts 343°
2026-05-04 19:49 -21.28659 -47.75253 40056 ft 483 kts 343°
2026-05-04 19:50 -21.21993 -47.76339 40078 ft 485 kts 343°
2026-05-04 19:50 -21.15329 -47.77427 40075 ft 484 kts 343°
2026-05-04 19:51 -21.08674 -47.78354 40039 ft 485 kts 344°
2026-05-04 19:51 -21.01986 -47.79278 40039 ft 484 kts 344°
2026-05-04 19:52 -20.95303 -47.80183 40040 ft 484 kts 344°
2026-05-04 19:52 -20.88623 -47.81095 40038 ft 485 kts 344°
2026-05-04 19:53 -20.81961 -47.81999 40021 ft 487 kts 345°
2026-05-04 19:53 -20.75233 -47.82912 40041 ft 487 kts 345°
2026-05-04 19:54 -20.68505 -47.83826 40043 ft 487 kts 345°
2026-05-04 19:54 -20.61780 -47.84737 40044 ft 487 kts 345°
2026-05-04 19:55 -20.55059 -47.85648 40044 ft 487 kts 345°
2026-05-04 19:55 -20.48386 -47.86550 40040 ft 486 kts 345°
2026-05-04 19:56 -20.41672 -47.87459 40040 ft 487 kts 345°
2026-05-04 19:56 -20.34948 -47.88367 40032 ft 488 kts 345°
2026-05-04 19:57 -20.28212 -47.89283 40032 ft 489 kts 345°
2026-05-04 19:57 -20.21471 -47.90196 40039 ft 488 kts 345°
2026-05-04 19:58 -20.14783 -47.91104 40035 ft 488 kts 345°
2026-05-04 19:58 -20.08035 -47.92016 40048 ft 488 kts 345°
2026-05-04 19:59 -20.01301 -47.92927 40072 ft 488 kts 345°
2026-05-04 19:59 -19.94571 -47.93836 40094 ft 487 kts 345°
2026-05-04 20:00 -19.87894 -47.94737 40119 ft 487 kts 345°
2026-05-04 20:00 -19.81164 -47.95647 40123 ft 489 kts 345°
2026-05-04 20:01 -19.74420 -47.96553 40129 ft 488 kts 345°
2026-05-04 20:01 -19.67682 -47.97462 40056 ft 487 kts 345°
2026-05-04 20:02 -19.60959 -47.98366 40053 ft 486 kts 345°
2026-05-04 20:02 -19.54291 -47.99264 40051 ft 487 kts 345°
2026-05-04 20:03 -19.47564 -48.00166 40057 ft 487 kts 345°
2026-05-04 20:03 -19.40834 -48.01070 40068 ft 488 kts 345°
2026-05-04 20:04 -19.34097 -48.01974 40069 ft 489 kts 345°
2026-05-04 20:04 -19.27390 -48.02877 40067 ft 489 kts 345°
2026-05-04 20:05 -19.20655 -48.03848 40075 ft 489 kts 345°
2026-05-04 20:05 -19.13907 -48.04786 40052 ft 489 kts 345°
2026-05-04 20:06 -19.07170 -48.05738 40061 ft 488 kts 345°
2026-05-04 20:06 -19.00435 -48.06683 40064 ft 488 kts 345°
2026-05-04 20:07 -18.93756 -48.07621 40154 ft 487 kts 345°
2026-05-04 20:07 -18.87012 -48.08441 40157 ft 489 kts 347°
2026-05-04 20:08 -18.80230 -48.09138 40153 ft 490 kts 346°
2026-05-04 20:08 -18.73433 -48.09851 40135 ft 491 kts 347°
2026-05-04 20:09 -18.66681 -48.10547 40110 ft 491 kts 347°
2026-05-04 20:09 -18.59873 -48.11256 40081 ft 492 kts 347°
2026-05-04 20:10 -18.53080 -48.11956 40054 ft 490 kts 347°
2026-05-04 20:10 -18.46292 -48.12662 40017 ft 491 kts 347°
2026-05-04 20:10 -18.42880 -48.13016 39641 ft 494 kts 347°
2026-05-04 20:11 -18.39511 -48.13362 39174 ft 492 kts 346°
2026-05-04 20:11 -18.36116 -48.13711 38726 ft 489 kts 346°
2026-05-04 20:11 -18.32736 -48.14064 38220 ft 487 kts 347°
2026-05-04 20:11 -18.29366 -48.14415 37759 ft 487 kts 347°
2026-05-04 20:12 -18.25997 -48.14764 37301 ft 488 kts 347°
2026-05-04 20:12 -18.22617 -48.15112 36841 ft 488 kts 347°
2026-05-04 20:12 -18.19232 -48.15461 36380 ft 488 kts 348°
2026-05-04 20:12 -18.15853 -48.15809 35919 ft 488 kts 348°
2026-05-04 20:13 -18.12475 -48.16158 35457 ft 488 kts 348°
2026-05-04 20:13 -18.09089 -48.16508 34998 ft 489 kts 348°
2026-05-04 20:13 -18.05750 -48.16851 34543 ft 489 kts 349°
2026-05-04 20:13 -18.02362 -48.17198 34088 ft 488 kts 349°
2026-05-04 20:14 -17.98984 -48.17546 33586 ft 488 kts 349°
2026-05-04 20:14 -17.95593 -48.17897 33122 ft 491 kts 349°
2026-05-04 20:14 -17.92190 -48.18247 32656 ft 492 kts 349°
2026-05-04 20:14 -17.88780 -48.18596 32180 ft 493 kts 349°
2026-05-04 20:15 -17.85360 -48.18948 31729 ft 494 kts 350°
2026-05-04 20:15 -17.81940 -48.19300 31263 ft 494 kts 350°
2026-05-04 20:15 -17.78482 -48.19427 30780 ft 501 kts 358°
2026-05-04 20:15 -17.75005 -48.19094 30325 ft 503 kts
2026-05-04 20:16 -17.71571 -48.18707 29821 ft 503 kts
2026-05-04 20:16 -17.68087 -48.18328 29335 ft 505 kts
2026-05-04 20:16 -17.64589 -48.17948 28856 ft 506 kts
2026-05-04 20:16 -17.61092 -48.17561 28377 ft 505 kts
2026-05-04 20:17 -17.57586 -48.17172 27901 ft 508 kts
2026-05-04 20:17 -17.54068 -48.16786 27422 ft 509 kts
2026-05-04 20:17 -17.50545 -48.16404 26945 ft 509 kts
2026-05-04 20:17 -17.47034 -48.16016 26496 ft 506 kts
2026-05-04 20:18 -17.43540 -48.15629 26047 ft 504 kts
2026-05-04 20:18 -17.40116 -48.15255 25616 ft 500 kts
2026-05-04 20:18 -17.36659 -48.14878 25187 ft 498 kts
2026-05-04 20:18 -17.33234 -48.14501 24770 ft 491 kts
2026-05-04 20:19 -17.29874 -48.14131 24353 ft 481 kts
2026-05-04 20:19 -17.26555 -48.13770 23950 ft 478 kts
2026-05-04 20:19 -17.23258 -48.13409 23536 ft 475 kts
2026-05-04 20:19 -17.19986 -48.13050 23063 ft 471 kts
2026-05-04 20:20 -17.16784 -48.12700 22618 ft 467 kts
2026-05-04 20:20 -17.13572 -48.12348 22169 ft 463 kts
2026-05-04 20:20 -17.10385 -48.11999 21724 ft 458 kts
2026-05-04 20:20 -17.07234 -48.11656 21295 ft 453 kts
2026-05-04 20:21 -17.04111 -48.11316 20874 ft 450 kts
2026-05-04 20:21 -17.01010 -48.10974 20463 ft 446 kts
2026-05-04 20:21 -16.94873 -48.10307 19662 ft 441 kts
2026-05-04 20:22 -16.91875 -48.09979 19278 ft 437 kts
2026-05-04 20:22 -16.88856 -48.09648 18897 ft 435 kts
2026-05-04 20:22 -16.85856 -48.09322 18529 ft 432 kts
2026-05-04 20:22 -16.82879 -48.08997 18130 ft 429 kts
2026-05-04 20:23 -16.79922 -48.08677 17705 ft 426 kts
2026-05-04 20:23 -16.76975 -48.08676 17272 ft 422 kts 354°
2026-05-04 20:23 -16.74097 -48.09191 16865 ft 419 kts 346°
2026-05-04 20:23 -16.71263 -48.09853 16474 ft 416 kts 347°
2026-05-04 20:24 -16.68476 -48.10472 16090 ft 414 kts 347°
2026-05-04 20:24 -16.65668 -48.11098 15711 ft 411 kts 347°
2026-05-04 20:24 -16.62906 -48.11731 15333 ft 396 kts 347°
2026-05-04 20:24 -16.60305 -48.12324 14962 ft 370 kts 347°
2026-05-04 20:25 -16.57858 -48.12875 14581 ft 350 kts 347°
2026-05-04 20:25 -16.55532 -48.13399 14196 ft 334 kts 347°
2026-05-04 20:25 -16.53305 -48.13903 13804 ft 322 kts 348°
2026-05-04 20:25 -16.51153 -48.14390 13355 ft 311 kts 348°
2026-05-04 20:26 -16.49066 -48.14861 12919 ft 303 kts 347°
2026-05-04 20:26 -16.47055 -48.15316 12500 ft 297 kts 347°
2026-05-04 20:26 -16.45044 -48.15770 12078 ft 295 kts 347°
2026-05-04 20:26 -16.43053 -48.16220 11767 ft 291 kts 347°
2026-05-04 20:27 -16.41073 -48.16667 11516 ft 292 kts 347°
2026-05-04 20:27 -16.39090 -48.17115 11256 ft 291 kts 347°
2026-05-04 20:27 -16.37115 -48.17560 11001 ft 290 kts 347°
2026-05-04 20:27 -16.35143 -48.18006 10746 ft 289 kts 347°
2026-05-04 20:28 -16.33182 -48.18447 10490 ft 287 kts 347°
2026-05-04 20:28 -16.31235 -48.18886 10237 ft 286 kts 347°
2026-05-04 20:28 -16.29328 -48.19317 9990 ft 283 kts 347°
2026-05-04 20:28 -16.27409 -48.19749 9724 ft 280 kts 347°
2026-05-04 20:29 -16.25506 -48.20176 9471 ft 281 kts 347°
2026-05-04 20:29 -16.23593 -48.20606 9219 ft 281 kts 348°
2026-05-04 20:29 -16.21679 -48.21034 8964 ft 281 kts 348°
2026-05-04 20:29 -16.19768 -48.21462 8736 ft 280 kts 348°
2026-05-04 20:30 -16.17866 -48.21889 8484 ft 279 kts 348°
2026-05-04 20:30 -16.15965 -48.22254 8234 ft 277 kts 355°
2026-05-04 20:30 -16.14049 -48.22128 7990 ft 276 kts 11°
2026-05-04 20:30 -16.12226 -48.21661 7754 ft 264 kts 15°
2026-05-04 20:31 -16.10475 -48.21214 7523 ft 255 kts 15°
2026-05-04 20:31 -16.08808 -48.20794 7307 ft 246 kts 15°
2026-05-04 20:31 -16.07173 -48.20374 7107 ft 239 kts 16°
2026-05-04 20:31 -16.05578 -48.19961 6906 ft 234 kts 16°
2026-05-04 20:32 -16.04018 -48.19562 6711 ft 228 kts 16°
2026-05-04 20:32 -16.02493 -48.19170 6518 ft 224 kts 16°
2026-05-04 20:32 -16.00990 -48.18786 6320 ft 221 kts 16°
2026-05-04 20:32 -15.99509 -48.18411 6126 ft 218 kts 14°
2026-05-04 20:33 -15.98023 -48.18360 5933 ft 211 kts 356°
2026-05-04 20:33 -15.96595 -48.18494 5756 ft 202 kts 359°
2026-05-04 20:33 -15.95216 -48.18531 5592 ft 195 kts
2026-05-04 20:33 -15.93965 -48.18176 5430 ft 186 kts 28°
2026-05-04 20:34 -15.92951 -48.17488 5429 ft 166 kts 44°
2026-05-04 20:34 -15.92235 -48.16601 5427 ft 156 kts 59°
2026-05-04 20:34 -15.91695 -48.15623 5434 ft 157 kts 61°
2026-05-04 20:34 -15.91130 -48.14663 5431 ft 154 kts 60°
2026-05-04 20:35 -15.90574 -48.13698 5443 ft 158 kts 62°
2026-05-04 20:35 -15.90018 -48.12733 5450 ft 154 kts 60°
2026-05-04 20:35 -15.89463 -48.11766 5450 ft 157 kts 63°
2026-05-04 20:35 -15.89125 -48.10705 5454 ft 156 kts 87°
2026-05-04 20:36 -15.89086 -48.09576 5467 ft 156 kts 84°
2026-05-04 20:36 -15.88987 -48.08467 5462 ft 150 kts 88°
2026-05-04 20:36 -15.88937 -48.07446 5490 ft 143 kts 85°
2026-05-04 20:36 -15.88853 -48.06441 5490 ft 137 kts 87°
2026-05-04 20:37 -15.88809 -48.05439 5496 ft 139 kts 86°
2026-05-04 20:37 -15.88725 -48.04427 5455 ft 140 kts 85°
2026-05-04 20:37 -15.88677 -48.03441 5287 ft 134 kts 86°
2026-05-04 20:37 -15.88600 -48.02463 5120 ft 138 kts 85°
2026-05-04 20:38 -15.88554 -48.01489 4954 ft 133 kts 86°
2026-05-04 20:38 -15.88479 -48.00542 4778 ft 134 kts 85°
2026-05-04 20:38 -15.88408 -47.99590 4608 ft 136 kts 86°
2026-05-04 20:38 -15.88359 -47.98624 4455 ft 135 kts 87°
2026-05-04 20:39 -15.88300 -47.97651 4237 ft 132 kts 86°
2026-05-04 20:39 -15.88238 -47.96698 4152 ft 132 kts 87°
2026-05-04 20:39 -15.88177 -47.95734 3917 ft 130 kts 86°
2026-05-04 20:39 -15.88120 -47.94788 3698 ft 131 kts 87°
2026-05-04 20:40 -15.88056 -47.93923 3518 ft 107 kts 88°
2026-05-04 20:40 -15.88019 -47.93259 3471 ft 73 kts 86°
2026-05-04 20:40 -15.87996 -47.92885 3470 ft 39 kts 88°
2026-05-04 20:40 -15.87980 -47.92640 3471 ft 30 kts 86°
2026-05-04 20:41 -15.87965 -47.92423 3471 ft 30 kts 86°
2026-05-04 20:41 -15.87951 -47.92203 3470 ft 32 kts 86°
2026-05-04 20:41 -15.87936 -47.91973 3468 ft 31 kts 82°
2026-05-04 20:41 -15.87874 -47.91799 3466 ft 23 kts 57°
2026-05-04 20:42 -15.87792 -47.91671 3464 ft 21 kts 57°
2026-05-04 20:42 -15.87698 -47.91550 3464 ft 22 kts 24°
2026-05-04 20:42 -15.87537 -47.91561 3464 ft 25 kts 357°
2026-05-04 20:42 -15.87356 -47.91573 3464 ft 27 kts 356°
2026-05-04 20:43 -15.87200 -47.91667 3464 ft 28 kts 321°
2026-05-04 20:43 -15.87004 -47.91689 3464 ft 30 kts 356°
2026-05-04 20:43 -15.86790 -47.91704 3465 ft 32 kts 357°
2026-05-04 20:43 -15.86633 -47.91725 3465 ft 18 kts 324°
2026-05-04 20:44 -15.86660 -47.91807 3465 ft 15 kts 179°
2026-05-04 20:44 -15.86700 -47.91805 3465 ft 0 kts 178°